Weather History for Montrose, CO

Change the Weather History Date:

Saturday, January 26, 2013

  Actual Average Record
Temperature  
Mean Temperature 34 °F 28 °F  
Max Temperature 37 °F 40 °F 57 °F (2015)
Min Temperature 30 °F 16 °F 3 °F (2004)
Degree Days  
Heating Degree Days 31 37  
Month to date heating degree days 1268 1014  
Since 1 July heating degree days 3545 3622  
Cooling Degree Days 0 0  
Month to date cooling degree days 0 0  
Year to date cooling degree days 0 0  
Moisture  
Dew Point 34 °F    
Average Humidity 96    
Maximum Humidity 100    
Minimum Humidity 92    
Precipitation  
Precipitation 0.46 in 0.02 in 0.46 in (2013)
Month to date precipitation 0.48 0.56  
Year to date precipitation 0.48 0.56  
Sea Level Pressure  
Sea Level Pressure 30.00 in    
Wind  
Wind Speed 1 mph (SSE)    
Max Wind Speed 6 mph    
Max Gust Speed 7 mph    
Visibility 2 miles    
Events Fog , Rain    
T = Trace of Precipitation, MM = Missing Value Source: NWS Daily Summary

Daily Weather History Graph

Daily Weather History Graph

Search for Another Location

Airport:

Trip Planner

Search our weather history database for the weather conditions in past years. The results will help you decide how hot, cold, wet, or windy it might be!

Date:

Astronomy

Jan. 26, 2013 Rise Set
Actual Time 7:21 AM MST 5:27 PM MST
Civil Twilight 6:53 AM MST 5:55 PM MST
Nautical Twilight 6:21 AM MST 6:27 PM MST
Astronomical Twilight 5:49 AM MST 6:59 PM MST
Moon 5:24 PM MST (1/26) 6:41 AM MST (1/26)
Length of Visible Light 11h 02m
Length of Day
10h 05m
Full, 100% of the Moon is Illuminated
Jan 26
Full
Jan 26
Full
Feb 3
Last Quarter
Feb 10
New
Feb 17
First Quarter

Hourly Weather History & Observations

Time (MST) Temp. Windchill Dew Point Humidity Pressure Visibility Wind Dir Wind Speed Gust Speed Precip Events Conditions
12:09 AM 33.8 °F - 32.0 °F 93% 30.24 in 2.0 mi Calm Calm - N/A   Overcast
12:50 AM 30.2 °F - 30.2 °F 100% 30.23 in 1.8 mi Calm Calm - N/A   Mostly Cloudy
12:53 AM 30.9 °F - 30.0 °F 96% 30.21 in 1.8 mi Calm Calm - N/A   Mostly Cloudy
1:46 AM 30.2 °F - 30.2 °F 100% 30.21 in 1.5 mi Calm Calm - N/A   Mostly Cloudy
1:51 AM 30.2 °F - 30.2 °F 100% 30.21 in 1.5 mi Calm Calm - N/A   Mostly Cloudy
1:53 AM 30.9 °F - 30.0 °F 96% 30.19 in 1.2 mi Calm Calm - N/A   Mostly Cloudy
1:56 AM 30.2 °F - 30.2 °F 100% 30.21 in 0.8 mi Calm Calm - N/A   Mostly Cloudy
2:01 AM 30.2 °F - 30.2 °F 100% 30.21 in 0.2 mi Calm Calm - N/A Fog Light Freezing Fog
2:13 AM 30.2 °F - 30.2 °F 100% 30.20 in 0.2 mi Calm Calm - N/A Fog Light Freezing Fog
2:53 AM 30.0 °F - 30.0 °F 100% 30.18 in 0.2 mi Calm Calm - N/A Fog Light Freezing Fog
3:53 AM 30.0 °F - 30.0 °F 100% 30.17 in 0.2 mi Calm Calm - N/A Fog Light Freezing Fog
4:53 AM 30.9 °F 27.5 °F 30.9 °F 100% 30.14 in 0.5 mi South 3.5 mph - N/A Fog Light Freezing Fog
5:06 AM 30.2 °F 25.4 °F 30.2 °F 100% 30.14 in 1.0 mi South 4.6 mph - N/A   Overcast
5:18 AM 30.2 °F 24.3 °F 30.2 °F 100% 30.13 in 1.2 mi South 5.8 mph - N/A   Overcast
5:33 AM 30.2 °F 24.3 °F 30.2 °F 100% 30.12 in 1.8 mi SSE 5.8 mph - N/A   Scattered Clouds
5:53 AM 30.9 °F - 30.9 °F 100% 30.11 in 1.8 mi Calm Calm - N/A   Partly Cloudy
6:53 AM 30.9 °F - 30.0 °F 96% 30.11 in 1.8 mi Calm Calm - N/A   Mostly Cloudy
7:14 AM 30.2 °F - 30.2 °F 100% 30.10 in 2.5 mi Calm Calm - N/A   Scattered Clouds
7:27 AM 30.2 °F 26.7 °F 30.2 °F 100% 30.10 in 3.0 mi SSE 3.5 mph - N/A   Mostly Cloudy
7:37 AM 30.2 °F - 30.2 °F 100% 30.10 in 1.8 mi Calm Calm - N/A   Overcast
7:45 AM 30.2 °F - 30.2 °F 100% 30.10 in 1.5 mi Calm Calm - N/A   Overcast
7:53 AM 30.9 °F 27.5 °F 30.9 °F 100% 30.10 in 1.2 mi SE 3.5 mph - N/A   Overcast
8:23 AM 30.2 °F 24.3 °F 30.2 °F 100% 30.10 in 2.0 mi South 5.8 mph - 0.00 in   Overcast
8:53 AM 32.0 °F - 32.0 °F 100% 30.09 in 2.5 mi Calm Calm - 0.01 in   Overcast
9:07 AM 32.0 °F - 32.0 °F 100% 30.09 in 3.0 mi Calm Calm - 0.00 in   Overcast
9:17 AM 32.0 °F - 32.0 °F 100% 30.09 in 2.5 mi Calm Calm - 0.00 in   Overcast
9:53 AM 34.0 °F - 34.0 °F 100% 30.08 in 2.0 mi Calm Calm - 0.00 in Rain Light Rain
10:06 AM 33.8 °F - 33.8 °F 100% 30.09 in 1.8 mi Calm Calm - 0.01 in Rain Light Rain
10:15 AM 33.8 °F - 33.8 °F 100% 30.09 in 2.0 mi Calm Calm - 0.01 in Rain Light Rain
10:53 AM 35.1 °F - 34.0 °F 96% 30.06 in 2.0 mi Calm Calm - 0.02 in Rain Light Rain
11:08 AM 35.6 °F - 33.8 °F 93% 30.06 in 1.8 mi Calm Calm - 0.01 in Rain Light Rain
11:19 AM 35.6 °F - 35.6 °F 100% 30.05 in 2.5 mi Calm Calm - 0.01 in Rain Light Rain
11:30 AM 35.6 °F - 35.6 °F 100% 30.05 in 2.5 mi Calm Calm - 0.01 in   Overcast
11:44 AM 35.6 °F 32.8 °F 35.6 °F 100% 30.04 in 1.8 mi WNW 3.5 mph - 0.01 in   Overcast
11:48 AM 35.6 °F 32.8 °F 35.6 °F 100% 30.03 in 1.8 mi WNW 3.5 mph - 0.01 in   Overcast
11:53 AM 36.0 °F 33.3 °F 35.1 °F 97% 30.01 in 2.0 mi WNW 3.5 mph - 0.01 in   Overcast
12:03 PM 35.6 °F - 35.6 °F 100% 30.02 in 1.8 mi Calm Calm - N/A   Overcast
12:07 PM 35.6 °F 32.8 °F 35.6 °F 100% 30.02 in 1.8 mi West 3.5 mph - N/A   Overcast
12:20 PM 35.6 °F 32.8 °F 35.6 °F 100% 30.01 in 2.0 mi NW 3.5 mph - N/A   Overcast
12:37 PM 35.6 °F - 35.6 °F 100% 30.00 in 1.8 mi Calm Calm - 0.00 in Rain Light Rain
12:48 PM 37.4 °F - 35.6 °F 93% 29.99 in 2.5 mi Calm Calm - 0.00 in Rain Light Rain
12:53 PM 36.0 °F - 36.0 °F 100% 29.97 in 2.0 mi Calm Calm - 0.00 in Rain Light Rain
1:25 PM 35.6 °F - 35.6 °F 100% 29.96 in 1.8 mi Calm Calm - 0.01 in Rain Light Rain
1:53 PM 36.0 °F - 36.0 °F 100% 29.92 in 1.8 mi Calm Calm - 0.02 in Rain Light Rain
1:59 PM 37.4 °F - 35.6 °F 93% 29.94 in 1.8 mi Calm Calm - 0.00 in Rain Light Rain
2:17 PM 35.6 °F - 35.6 °F 100% 29.93 in 2.5 mi Calm Calm - 0.00 in Rain Light Rain
2:30 PM 35.6 °F 32.8 °F 35.6 °F 100% 29.93 in 3.0 mi South 3.5 mph - 0.01 in Rain Light Rain
2:49 PM 35.6 °F 32.8 °F 35.6 °F 100% 29.92 in 2.5 mi SE 3.5 mph - 0.01 in Rain Rain
2:53 PM 36.0 °F 33.3 °F 36.0 °F 100% 29.91 in 2.0 mi SE 3.5 mph - 0.02 in Rain Light Rain
3:01 PM 35.6 °F - 35.6 °F 100% 29.91 in 1.8 mi Calm Calm - 0.00 in Rain Light Rain
3:37 PM 37.4 °F - 37.4 °F 100% 29.90 in 1.2 mi Calm Calm - 0.02 in Rain Light Rain
3:45 PM 37.4 °F - 37.4 °F 100% 29.89 in 0.8 mi Calm Calm - 0.03 in Rain Light Rain
3:53 PM 36.0 °F - 36.0 °F 100% 29.88 in 0.8 mi Calm Calm - 0.04 in Rain Light Rain
4:53 PM 36.0 °F - 36.0 °F 100% 29.86 in 0.2 mi Calm Calm - 0.08 in Fog , Rain Light Rain
5:22 PM 35.6 °F - 35.6 °F 100% 29.87 in 0.2 mi Calm Calm - 0.04 in Fog , Rain Rain
5:53 PM 36.0 °F - 36.0 °F 100% 29.86 in 0.5 mi Calm Calm - 0.09 in Fog , Rain Light Rain
6:01 PM 35.6 °F - 35.6 °F 100% 29.88 in 0.5 mi Calm Calm - 0.01 in Fog , Rain Light Rain
6:10 PM 35.6 °F 32.8 °F 35.6 °F 100% 29.88 in 0.5 mi SE 3.5 mph - 0.02 in Fog , Rain Light Rain
6:53 PM 35.1 °F 32.2 °F 35.1 °F 100% 29.86 in 1.0 mi South 3.5 mph - 0.08 in Rain Light Rain
7:00 PM 35.6 °F - 35.6 °F 100% 29.87 in 1.8 mi Calm Calm - 0.00 in Rain Light Rain
7:15 PM 35.6 °F - 35.6 °F 100% 29.87 in 1.0 mi Calm Calm - 0.02 in Rain Light Rain
7:33 PM 35.6 °F - 35.6 °F 100% 29.86 in 0.8 mi Calm Calm - 0.03 in Rain Light Rain
7:41 PM 35.6 °F 32.8 °F 35.6 °F 100% 29.87 in 1.2 mi SSW 3.5 mph - 0.04 in   Overcast
7:45 PM 35.6 °F - 35.6 °F 100% 29.86 in 2.0 mi Calm Calm - 0.04 in   Overcast
7:53 PM 35.1 °F - 35.1 °F 100% 29.85 in 1.5 mi Calm Calm - 0.05 in Rain Light Rain
7:57 PM 35.6 °F - 35.6 °F 100% 29.86 in 0.8 mi Calm Calm - 0.00 in Rain Light Rain
8:08 PM 35.6 °F - 35.6 °F 100% 29.86 in 1.2 mi Calm Calm - 0.00 in Rain Light Rain
8:21 PM 35.6 °F - 35.6 °F 100% 29.86 in 0.8 mi Calm Calm - 0.01 in Rain Light Rain
8:38 PM 33.8 °F - 33.8 °F 100% 29.85 in 1.2 mi Calm Calm - 0.02 in Rain Light Rain
8:53 PM 35.1 °F - 35.1 °F 100% 29.83 in 1.0 mi Calm Calm - 0.03 in Rain Light Rain
9:14 PM 35.6 °F 32.8 °F 35.6 °F 100% 29.86 in 1.2 mi East 3.5 mph - 0.00 in Rain Light Rain
9:23 PM 33.8 °F 28.6 °F 33.8 °F 100% 29.86 in 2.0 mi ESE 5.8 mph - 0.01 in Rain Light Rain
9:42 PM 33.8 °F 30.8 °F 33.8 °F 100% 29.86 in 3.0 mi SE 3.5 mph - 0.01 in Rain Light Rain
9:53 PM 35.1 °F 32.2 °F 35.1 °F 100% 29.83 in 4.0 mi SE 3.5 mph - 0.01 in Rain Light Rain
10:12 PM 33.8 °F - 33.8 °F 100% 29.86 in 2.0 mi Calm Calm - 0.00 in   Overcast
10:36 PM 33.8 °F - 33.8 °F 100% 29.86 in 3.0 mi Calm Calm - 0.00 in   Overcast
10:53 PM 34.0 °F - 34.0 °F 100% 29.84 in 3.0 mi Calm Calm - 0.00 in   Overcast
11:12 PM 33.8 °F - 33.8 °F 100% 29.87 in 2.0 mi Calm Calm - N/A   Overcast
11:23 PM 33.8 °F 30.8 °F 33.8 °F 100% 29.87 in 1.5 mi SE 3.5 mph - N/A   Overcast
11:35 PM 33.8 °F - 33.8 °F 100% 29.88 in 0.8 mi Calm Calm - N/A   Overcast
11:53 PM 34.0 °F - 34.0 °F 100% 29.85 in 0.8 mi Calm Calm - N/A   Overcast